Weather History for Aberdeen, SD

Change the Weather History Date:

Sunday, January 13, 2013

  Actual Average Record
Temperature  
Mean Temperature 5 °F 12 °F  
Max Temperature 13 °F 22 °F 56 °F (1987)
Min Temperature -4 °F 1 °F -40 °F (1912)
Degree Days  
Heating Degree Days 60 53  
Month to date heating degree days 624 689  
Since 1 July heating degree days 4048 4180  
Cooling Degree Days 0 0  
Month to date cooling degree days 0 0  
Year to date cooling degree days 0 0  
Moisture  
Dew Point -3 °F    
Average Humidity 71    
Maximum Humidity 80    
Minimum Humidity 61    
Precipitation  
Precipitation 0.00 in 0.02 in 0.55 in (1923)
Month to date precipitation 0.05 0.23  
Year to date precipitation 0.05 0.23  
Snow  
Snow 0.00 in - - ()
Month to date snowfall 1.1  
Since 1 July snowfall 15.0  
Snow Depth 2.00 in    
Sea Level Pressure  
Sea Level Pressure 30.27 in    
Wind  
Wind Speed 6 mph (WNW)    
Max Wind Speed 12 mph    
Max Gust Speed 15 mph    
Visibility 10 miles    
Events      
T = Trace of Precipitation, MM = Missing Value Source: NWS Daily Summary

Daily Weather History Graph

Daily Weather History Graph

Search for Another Location

Airport:

Trip Planner

Search our weather history database for the weather conditions in past years. The results will help you decide how hot, cold, wet, or windy it might be!

Date:

Astronomy

Jan. 13, 2013 Rise Set
Actual Time 8:10 AM CST 5:14 PM CST
Civil Twilight 7:37 AM CST 5:47 PM CST
Nautical Twilight 7:00 AM CST 6:24 PM CST
Astronomical Twilight 6:25 AM CST 7:00 PM CST
Moon 9:01 AM CST (1/13) 8:04 PM CST (1/13)
Length of Visible Light 10h 10m
Length of Day
9h 04m
Waxing Crescent, 5% of the Moon is Illuminated
Jan 13
Waxing Crescent
Jan 18
First Quarter
Jan 26
Full
Feb 3
Last Quarter
Feb 10
New

Hourly Weather History & Observations

Time (CST) Temp. Windchill Dew Point Humidity Pressure Visibility Wind Dir Wind Speed Gust Speed Precip Events Conditions
12:53 AM -2.9 °F -16.5 °F -9.0 °F 75% 30.26 in 10.0 mi NNW 6.9 mph - N/A   Clear
1:53 AM -2.0 °F -17.7 °F -9.0 °F 72% 30.25 in 10.0 mi NNW 9.2 mph - N/A   Clear
2:53 AM -0.9 °F -15.3 °F -8.0 °F 72% 30.26 in 10.0 mi NW 8.1 mph - N/A   Scattered Clouds
3:53 AM -0.0 °F -11.6 °F -7.1 °F 72% 30.26 in 10.0 mi WNW 5.8 mph - N/A   Mostly Cloudy
4:53 AM 1.9 °F -9.2 °F -6.0 °F 69% 30.25 in 10.0 mi WNW 5.8 mph - N/A   Overcast
5:53 AM 1.9 °F -10.6 °F -5.1 °F 72% 30.24 in 10.0 mi NW 6.9 mph - N/A   Overcast
6:53 AM 1.9 °F -9.2 °F -6.0 °F 69% 30.25 in 10.0 mi NW 5.8 mph - N/A   Mostly Cloudy
7:53 AM 1.9 °F -5.6 °F -6.0 °F 69% 30.26 in 10.0 mi West 3.5 mph - N/A   Partly Cloudy
8:53 AM 3.0 °F - -5.1 °F 69% 30.28 in 10.0 mi Calm Calm - N/A   Overcast
9:53 AM 5.0 °F -4.1 °F -4.0 °F 66% 30.29 in 10.0 mi WNW 4.6 mph - N/A   Clear
10:53 AM 7.0 °F -1.7 °F -2.0 °F 67% 30.29 in 10.0 mi WNW 4.6 mph - N/A   Partly Cloudy
11:53 AM 10.9 °F 4.7 °F 1.0 °F 64% 30.25 in 10.0 mi WNW 3.5 mph - N/A   Mostly Cloudy
12:53 PM 10.9 °F 0.2 °F 1.9 °F 67% 30.24 in 10.0 mi WNW 6.9 mph - N/A   Mostly Cloudy
1:53 PM 12.0 °F 1.5 °F 1.9 °F 64% 30.23 in 10.0 mi West 6.9 mph - N/A   Mostly Cloudy
2:53 PM 12.9 °F 2.6 °F 3.0 °F 65% 30.24 in 10.0 mi WNW 6.9 mph - N/A   Clear
3:53 PM 12.0 °F 1.5 °F 3.0 °F 67% 30.25 in 10.0 mi West 6.9 mph - N/A   Partly Cloudy
4:53 PM 10.9 °F 0.2 °F 1.9 °F 67% 30.26 in 10.0 mi WNW 6.9 mph - N/A   Overcast
5:53 PM 10.0 °F 3.6 °F 1.9 °F 70% 30.27 in 10.0 mi West 3.5 mph - N/A   Overcast
6:53 PM 8.1 °F 1.4 °F 1.9 °F 76% 30.28 in 10.0 mi West 3.5 mph - N/A   Overcast
7:53 PM 7.0 °F -6.6 °F 1.0 °F 77% 30.30 in 10.0 mi WNW 9.2 mph - N/A   Overcast
8:15 PM 6.8 °F -7.8 °F -0.4 °F 72% 30.20 in 10.0 mi WNW 10.4 mph - N/A   Mostly Cloudy
8:30 PM 5.0 °F -10.0 °F -0.4 °F 78% 30.20 in 10.0 mi WNW 10.4 mph - N/A   Scattered Clouds
8:53 PM 3.9 °F -11.3 °F -2.0 °F 76% 30.31 in 10.0 mi NW 10.4 mph - N/A   Clear
9:53 PM 1.0 °F -8.7 °F -5.1 °F 75% 30.33 in 10.0 mi NW 4.6 mph - N/A   Clear
10:53 PM -0.0 °F -13.0 °F -6.0 °F 76% 30.35 in 10.0 mi NW 6.9 mph - N/A   Mostly Cloudy
11:36 PM -0.4 °F - -5.8 °F 78% 30.26 in 10.0 mi Calm Calm - N/A   Scattered Clouds
11:53 PM -0.4 °F -8.3 °F -5.8 °F 78% 30.26 in 10.0 mi WNW 3.5 mph - N/A   Clear